Location: Bennemühlen
(52.5740°N, 9.7135°E)
Time: 17:14:41
(UTC+00:00)

Vanguard 2 Rocket - Pass Details

Date: 18 February 2026
Orbit: 553 x 3286 km, 32.9° (Epoch: 12 March)

Event Time Altitude Azimuth Distance (km) Brightness Sun altitude
Rises 09:11:31 0° 188° (S) 7,224 12.2 18.9°
Reaches altitude 10° 09:20:14 10° 168° (SSE) 6,189 12.6 19.6°
Maximum altitude 09:28:21 14° 143° (SE) 5,588 13.7 20.3°
Drops below altitude 10° 09:35:42 10° 117° (ESE) 5,561 12.0 20.9°
Sets 09:42:29 0° 96° (E) 6,060 11.6 21.5°
